TimeCET,TemperatureF,Dew PointF,Humidity,Sea Level PressureIn,VisibilityMPH,Wind Direction,Wind SpeedMPH,Gust SpeedMPH,PrecipitationIn,Events,Conditions,WindDirDegrees,DateUTC
12:00 AM,48.2,44.6,87,29.53,6.2,WSW,3.5,-,N/A,,Overcast,240,2012-11-04 23:00:00
1:00 AM,48.2,44.6,87,29.50,6.2,West,5.8,-,N/A,Rain,Light Rain,270,2012-11-05 00:00:00
2:00 AM,46.4,44.6,93,29.50,6.2,West,10.4,-,N/A,Rain,Light Rain,280,2012-11-05 01:00:00
3:00 AM,46.4,44.6,93,29.50,4.3,West,11.5,-,N/A,Rain,Light Rain,270,2012-11-05 02:00:00
3:37 AM,46.4,46.4,100,29.50,3.7,West,9.2,-,N/A,Rain,Light Rain,270,2012-11-05 02:37:00
4:00 AM,46.4,46.4,100,29.50,3.7,West,11.5,-,N/A,Rain,Light Rain,280,2012-11-05 03:00:00
5:00 AM,46.4,44.6,93,29.50,6.2,West,10.4,-,N/A,Rain,Light Rain,280,2012-11-05 04:00:00
6:00 AM,46.4,44.6,93,29.53,6.2,West,10.4,-,N/A,Rain,Light Rain,280,2012-11-05 05:00:00
7:00 AM,44.6,42.8,93,29.53,6.2,West,6.9,-,N/A,Rain,Light Rain,260,2012-11-05 06:00:00
8:00 AM,44.6,42.8,93,29.53,6.2,WSW,5.8,-,N/A,Rain,Light Rain,240,2012-11-05 07:00:00
9:00 AM,46.4,42.8,87,29.56,6.2,West,5.8,-,N/A,Rain,Light Rain,260,2012-11-05 08:00:00
10:00 AM,46.4,42.8,87,29.53,-9999.0,West,4.6,-,N/A,,Clear,280,2012-11-05 09:00:00
11:00 AM,46.4,42.8,87,29.59,-9999.0,WSW,9.2,-,N/A,,Clear,250,2012-11-05 10:00:00
12:00 PM,48.2,44.6,87,29.56,-9999.0,WSW,9.2,-,N/A,,Clear,250,2012-11-05 11:00:00
1:00 PM,48.2,42.8,82,29.59,-9999.0,West,15.0,-,N/A,,Clear,260,2012-11-05 12:00:00
2:00 PM,48.2,41.0,76,29.56,-9999.0,West,12.7,-,N/A,,Clear,260,2012-11-05 13:00:00
3:00 PM,46.4,41.0,81,29.59,-9999.0,WSW,10.4,-,N/A,,Clear,240,2012-11-05 14:00:00
4:00 PM,46.4,41.0,81,29.59,-9999.0,WSW,10.4,-,N/A,,Clear,240,2012-11-05 15:00:00
5:00 PM,44.6,39.2,81,29.59,-9999.0,WSW,11.5,-,N/A,,Clear,250,2012-11-05 16:00:00
6:00 PM,44.6,39.2,81,29.62,-9999.0,WSW,8.1,-,N/A,,Clear,240,2012-11-05 17:00:00
7:00 PM,44.6,39.2,81,29.62,-9999.0,WSW,13.8,-,N/A,,Clear,240,2012-11-05 18:00:00
8:00 PM,44.6,39.2,81,29.65,-9999.0,WSW,11.5,-,N/A,,Clear,250,2012-11-05 19:00:00
9:00 PM,44.6,39.2,81,29.65,-9999.0,WSW,13.8,-,N/A,,Clear,250,2012-11-05 20:00:00
10:00 PM,44.6,39.2,81,29.65,6.2,WSW,13.8,-,N/A,,Mostly Cloudy,250,2012-11-05 21:00:00
11:00 PM,42.8,39.2,87,29.68,-9999.0,West,15.0,-,N/A,,Clear,260,2012-11-05 22:00:00